[[{"header":{"parameterUnit":"m.s-1","parameterCategory":1,"la1":30.2991,"la2":30.254,"lo1":-89.0895,"lo2":-89.0444,"dy":0.0017,"dx":0.0017,"nx":28,"ny":28,"refTime":"2025-09-05T21:00:00:Z","depth":0,"parameterNumber":2,"parameterNumberName":"U-component_of_WINDS"},"data":[0,0,0,0,0,0,0,0,0,0,0,0,0,0,0,0,0,0,0,0,0,0,0,0,0,0,0,0,0,0,0,0,0,0,0,0,0,0,0,0,0,0,0,0,0,0,0,0,0,0,0,0,0,0,0,0,0,0,-0.3106,-0.3107,0,-0.3176,-0.3177,-0.3177,-0.3202,-0.3202,-0.3202,-0.3202,-0.3274,-0.3277,-0.3279,0,0,0,0,0,0,0,0,0,0,0,0,0,-0.2997,-0.2999,-0.3106,-0.3107,-0.3108,-0.3176,-0.3177,-0.3178,-0.3202,-0.3202,-0.3202,-0.3202,-0.3274,-0.3276,-0.3279,0,0,0,0,0,0,0,0,0,0,0,0,0,-0.3053,-0.2999,-0.3106,-0.3129,-0.3131,-0.3175,-0.3177,-0.3178,-0.3203,-0.3202,-0.3202,-0.3201,-0.3273,-0.3276,-0.3279,-0.3307,0,0,-0.3289,-0.3291,0,0,0,0,0,0,0,0,-0.305,-0.3057,-0.3124,-0.3127,-0.313,-0.318,-0.3165,-0.3221,-0.3203,-0.3176,-0.3202,-0.3201,-0.3243,-0.3249,-0.3263,-0.331,-0.3313,-0.3289,-0.3291,-0.3293,-0.3294,0,0,0,0,0,0,0,-0.3046,-0.3054,-0.3134,-0.3125,-0.3129,-0.3136,-0.3143,-0.3176,-0.3211,-0.3178,-0.318,-0.3188,-0.3245,-0.326,-0.3265,-0.3314,-0.3289,-0.3292,-0.3294,-0.3296,-0.3388,-0.3388,0,0,0,0,0,0,-0.3038,-0.3051,-0.3132,-0.3136,-0.3088,-0.3138,-0.3146,-0.3164,-0.321,-0.3217,-0.3188,-0.3189,-0.3254,-0.3261,-0.3268,-0.3303,-0.3293,-0.3296,-0.3298,-0.3387,-0.3388,-0.3389,0,0,0,0,0,0,-0.3036,-0.3045,-0.3129,-0.3094,-0.3105,-0.314,-0.316,-0.3166,-0.3181,-0.3218,-0.3225,-0.3196,-0.3254,-0.3263,-0.3297,-0.3306,-0.3297,-0.33,-0.3387,-0.3388,-0.3388,-0.3373,0,0,0,0,0,0,-0.3032,-0.3044,-0.3054,-0.3094,-0.3107,-0.3156,-0.3161,-0.3168,-0.3186,-0.3188,-0.3228,-0.3234,-0.3255,-0.3292,-0.33,-0.331,-0.3303,-0.3386,-0.3387,-0.3388,-0.3373,-0.3373,-0.3374,0,0,0,0,0,-0.3029,-0.3048,-0.3055,-0.3064,-0.3121,-0.3157,-0.3164,-0.3187,-0.3187,-0.3198,-0.3222,-0.3233,-0.3303,-0.3295,-0.3305,-0.3316,-0.3386,-0.3387,-0.3388,-0.3373,-0.3373,-0.3374,0,0,0,0,0,0,-0.3009,-0.3053,-0.3062,-0.3094,-0.3121,-0.3161,-0.3175,-0.3187,-0.3215,-0.3215,-0.3243,-0.3252,-0.3284,-0.3303,-0.3293,-0.3345,-0.3345,-0.3348,-0.3331,-0.3331,-0.3332,-0.3326,-0.3306,0,0,0,0,0,-0.3008,-0.3033,-0.3071,-0.3096,-0.3109,-0.314,-0.3157,-0.3172,-0.3201,-0.3213,-0.324,-0.3268,-0.3297,-0.3315,-0.3344,-0.3376,-0.3386,-0.3389,-0.3389,-0.3389,-0.3391,-0.341,-0.3412,-0.3392,-0.3392,-0.3392,0,0,-0.3007,-0.3035,-0.3049,-0.3093,-0.3116,-0.3142,-0.315,-0.3177,-0.3196,-0.3218,-0.3251,-0.3271,-0.3305,-0.3338,-0.3354,-0.3356,-0.3399,-0.339,-0.339,-0.3392,-0.3411,-0.3413,-0.3415,-0.3393,-0.3393,-0.3393,0,0,-0.3019,-0.3042,-0.3066,-0.3088,-0.3123,-0.3143,-0.3148,-0.3186,-0.32,-0.3234,-0.3251,-0.3275,-0.3324,-0.3347,-0.3365,-0.3386,-0.3397,-0.3395,-0.3396,-0.3414,-0.3415,-0.3417,-0.3424,-0.3426,-0.3397,-0.3397,-0.3397,0,-0.3014,-0.3053,-0.3076,-0.3102,-0.3121,-0.3141,-0.3166,-0.3187,-0.3229,-0.3242,-0.3242,-0.3304,-0.3328,-0.3367,-0.3372,-0.3387,-0.3394,-0.339,-0.3413,-0.3415,-0.3417,-0.3424,-0.3427,-0.3396,-0.3396,-0.3396,-0.3396,0,-0.3044,-0.3071,-0.3086,-0.3125,-0.3146,-0.3171,-0.3199,-0.3218,-0.3231,-0.3251,-0.3286,-0.3316,-0.3351,-0.3361,-0.3375,-0.3402,-0.3402,-0.3408,-0.3409,-0.3417,-0.3425,-0.3428,-0.3395,-0.3396,-0.3396,-0.3396,0,0,-0.3045,-0.3097,-0.3102,-0.312,-0.316,-0.3181,-0.3208,-0.3241,-0.3256,-0.3285,-0.3308,-0.3349,-0.3354,-0.3375,-0.3392,-0.3407,-0.3422,-0.3411,-0.3413,-0.3412,-0.3454,-0.3449,-0.3452,-0.343,-0.343,-0.3431,-0.3451,0,-0.3061,-0.3108,-0.313,-0.3168,-0.3193,-0.3213,-0.3236,-0.3262,-0.3282,-0.3307,-0.3329,-0.3358,-0.3363,-0.3376,-0.3392,-0.3416,-0.3431,-0.3415,-0.3452,-0.3453,-0.3442,-0.3456,-0.3451,-0.3468,-0.3454,-0.3454,-0.3455,0,-0.3087,-0.3114,-0.3154,-0.319,-0.3202,-0.3222,-0.3254,-0.3278,-0.3309,-0.3323,-0.3346,-0.3362,-0.3391,-0.339,-0.3431,-0.342,-0.3436,-0.345,-0.3452,-0.3456,-0.3454,-0.346,-0.3474,-0.3477,-0.346,-0.3459,-0.3459,0,-0.3083,-0.313,-0.316,-0.3175,-0.3218,-0.3232,-0.3251,-0.3282,-0.3301,-0.3329,-0.3342,-0.3374,-0.3392,-0.3416,-0.3441,-0.3438,-0.3479,-0.348,-0.3491,-0.3491,-0.3499,-0.3498,-0.3516,-0.351,-0.351,-0.3509,-0.3509,0,-0.3099,-0.3122,-0.3159,-0.3177,-0.3204,-0.323,-0.3256,-0.3276,-0.3304,-0.3327,-0.3346,-0.3368,-0.3399,-0.3425,-0.3444,-0.3475,-0.3483,-0.3495,-0.35,-0.3493,-0.3491,-0.3504,-0.3503,-0.351,-0.351,-0.351,-0.351,0,-0.3099,-0.3124,-0.3158,-0.3196,-0.3206,-0.3225,-0.3258,-0.3277,-0.3297,-0.3326,-0.3335,-0.3368,-0.3399,-0.3426,-0.3467,-0.348,-0.3512,-0.3518,-0.3501,-0.3503,-0.3513,-0.3511,-0.3539,-0.3544,-0.3534,-0.3534,-0.3535,0,-0.3107,-0.3125,-0.3165,-0.3182,-0.32,-0.3227,-0.3246,-0.3272,-0.3291,-0.3328,-0.3343,-0.3375,-0.3402,-0.3451,-0.3479,-0.3511,-0.3518,-0.3526,-0.3523,-0.3516,-0.3518,-0.3517,-0.3519,-0.3525,-0.3525,-0.3525,-0.3525,0,-0.3119,-0.313,-0.3157,-0.3188,-0.321,-0.3236,-0.3262,-0.3275,-0.3306,-0.3327,-0.3359,-0.338,-0.3422,-0.3454,-0.3489,-0.3509,-0.3523,-0.3526,-0.353,-0.3523,-0.3513,-0.3518,-0.3501,-0.3525,-0.3525,-0.3525,-0.3525,-0.3525,-0.3123,-0.314,-0.3171,-0.32,-0.3222,-0.3247,-0.3266,-0.3289,-0.3316,-0.3352,-0.3366,-0.3398,-0.343,-0.3478,-0.3498,-0.3524,-0.3527,-0.3533,-0.3534,-0.3535,-0.3534,-0.3508,-0.3531,-0.3531,-0.3531,-0.3531,-0.3531,0,-0.3136,-0.3156,-0.3183,-0.3219,-0.3242,-0.3252,-0.3282,-0.33,-0.3328,-0.3356,-0.3383,-0.3419,-0.345,-0.3481,-0.3514,-0.3529,-0.3536,-0.3537,-0.3536,-0.354,-0.353,-0.3523,-0.3531,-0.3531,-0.3531,-0.3531,-0.3531,-0.3531,-0.3145,-0.3174,-0.319,-0.3231,-0.3252,-0.3283,-0.3299,-0.3322,-0.3344,-0.3384,-0.341,-0.3429,-0.3459,-0.3494,-0.3523,-0.3532,-0.3543,-0.3542,-0.3552,-0.3541,-0.3541,-0.3541,-0.3534,-0.3544,-0.3544,-0.356,-0.356,-0.356]},{"header":{"parameterUnit":"m.s-1","parameterCategory":1,"la1":30.2991,"la2":30.254,"lo1":-89.0895,"lo2":-89.0444,"dy":0.0017,"dx":0.0017,"nx":28,"ny":28,"refTime":"2025-09-05T21:00:00:Z","depth":0,"parameterNumber":3,"parameterNumberName":"V-component_of_WINDS"},"data":[0,0,0,0,0,0,0,0,0,0,0,0,0,0,0,0,0,0,0,0,0,0,0,0,0,0,0,0,0,0,0,0,0,0,0,0,0,0,0,0,0,0,0,0,0,0,0,0,0,0,0,0,0,0,0,0,0,0,0.5661,0.5661,0,0.5692,0.5693,0.5693,0.5724,0.5724,0.5725,0.5725,0.5757,0.5757,0.5758,0,0,0,0,0,0,0,0,0,0,0,0,0,0.5628,0.5628,0.5661,0.5661,0.5662,0.5692,0.5693,0.5693,0.5724,0.5725,0.5725,0.5725,0.5757,0.5757,0.5758,0,0,0,0,0,0,0,0,0,0,0,0,0,0.5649,0.5629,0.5661,0.5681,0.5683,0.5692,0.5693,0.5693,0.5724,0.5725,0.5725,0.5726,0.5757,0.5757,0.5758,0.575,0,0,0.576,0.576,0,0,0,0,0,0,0,0,0.5648,0.565,0.5678,0.568,0.5682,0.5705,0.5693,0.5712,0.5724,0.5708,0.5725,0.5726,0.5739,0.5741,0.5746,0.5752,0.5753,0.576,0.5761,0.5761,0.5761,0,0,0,0,0,0,0,0.5646,0.5649,0.5673,0.5678,0.5681,0.5688,0.5692,0.5697,0.572,0.571,0.5712,0.5715,0.574,0.5745,0.5747,0.5753,0.576,0.5761,0.5761,0.5761,0.5755,0.5754,0,0,0,0,0,0,0.5642,0.5648,0.5672,0.5674,0.5666,0.5688,0.5693,0.5697,0.572,0.5724,0.5715,0.5717,0.5744,0.5746,0.5748,0.5741,0.5761,0.5762,0.5762,0.5755,0.5755,0.5754,0,0,0,0,0,0,0.5641,0.5644,0.5671,0.5662,0.5666,0.5688,0.5693,0.5697,0.5702,0.5724,0.5728,0.5715,0.5744,0.5747,0.575,0.5742,0.5762,0.5762,0.5756,0.5755,0.5754,0.5726,0,0,0,0,0,0,0.564,0.5643,0.564,0.5661,0.5666,0.5672,0.5693,0.5697,0.5703,0.5706,0.5725,0.5729,0.5745,0.5748,0.575,0.5744,0.5763,0.5757,0.5756,0.5755,0.5727,0.5724,0.5721,0,0,0,0,0,0.5639,0.5631,0.564,0.5643,0.5663,0.5671,0.5674,0.5693,0.5702,0.57,0.5714,0.5729,0.5743,0.5748,0.5751,0.5744,0.5757,0.5756,0.5755,0.5729,0.5724,0.5721,0,0,0,0,0,0,0.5608,0.5634,0.5644,0.5643,0.5655,0.5677,0.5674,0.5687,0.5696,0.5699,0.5721,0.5725,0.5725,0.5735,0.5741,0.5738,0.5752,0.5751,0.5731,0.5728,0.5724,0.5722,0.5764,0,0,0,0,0,0.5601,0.5606,0.5628,0.5625,0.563,0.5651,0.5655,0.5669,0.5682,0.5687,0.5701,0.5713,0.572,0.5725,0.5732,0.5729,0.5734,0.5726,0.5722,0.572,0.5719,0.5718,0.5715,0.575,0.575,0.575,0,0,0.5587,0.5602,0.5603,0.5619,0.563,0.5634,0.5655,0.5659,0.5662,0.5687,0.5691,0.5701,0.5716,0.5716,0.5716,0.5724,0.571,0.5718,0.5716,0.5716,0.5716,0.5713,0.571,0.5749,0.5749,0.5749,0,0,0.5563,0.5575,0.5574,0.5584,0.56,0.5614,0.5614,0.5634,0.5642,0.5646,0.5665,0.5669,0.5681,0.5691,0.5698,0.5679,0.5693,0.5681,0.5664,0.5663,0.566,0.5658,0.5651,0.5649,0.568,0.568,0.5679,0,0.5543,0.5551,0.5571,0.5574,0.5581,0.5604,0.5603,0.5612,0.563,0.5634,0.5642,0.5658,0.567,0.5672,0.5667,0.5672,0.5673,0.5679,0.5659,0.5657,0.5655,0.5649,0.5647,0.5678,0.5678,0.5678,0.5678,0,0.5526,0.5531,0.5528,0.5545,0.5551,0.5552,0.5573,0.5577,0.5589,0.5603,0.5606,0.5621,0.5633,0.5634,0.5647,0.5639,0.5643,0.5655,0.567,0.565,0.5645,0.5643,0.5676,0.5676,0.5677,0.5677,0,0,0.5484,0.5512,0.5511,0.5519,0.5539,0.5543,0.5545,0.5557,0.556,0.5571,0.5574,0.5584,0.5595,0.5603,0.5616,0.5616,0.56,0.5628,0.5628,0.5622,0.5593,0.5584,0.5581,0.561,0.5609,0.5609,0.5592,0,0.5464,0.5469,0.5487,0.5487,0.5492,0.5515,0.5517,0.5529,0.5541,0.5548,0.5561,0.5568,0.5582,0.5587,0.5587,0.5602,0.5594,0.5603,0.5612,0.5612,0.5608,0.5578,0.5569,0.5551,0.559,0.5589,0.5589,0,0.5441,0.5451,0.5451,0.5472,0.5475,0.5476,0.5488,0.5494,0.5509,0.5518,0.5526,0.5542,0.5546,0.556,0.5565,0.5571,0.5576,0.5583,0.5583,0.5585,0.5599,0.5579,0.5546,0.5544,0.5586,0.5586,0.5587,0,0.541,0.5424,0.5426,0.5433,0.5456,0.5457,0.5466,0.5482,0.5488,0.5499,0.5503,0.5514,0.552,0.5528,0.5546,0.5555,0.555,0.5565,0.5558,0.5557,0.5556,0.5556,0.5524,0.5559,0.5559,0.5559,0.5559,0,0.5386,0.5385,0.5413,0.5414,0.5414,0.5436,0.5435,0.5447,0.5461,0.5465,0.5485,0.5489,0.5512,0.5519,0.5533,0.5536,0.5538,0.5546,0.555,0.5544,0.5543,0.5548,0.5549,0.5558,0.5558,0.5558,0.5558,0,0.5351,0.537,0.5374,0.5396,0.5402,0.5401,0.542,0.5422,0.5436,0.5441,0.5444,0.5465,0.5474,0.5493,0.5506,0.5516,0.5515,0.5522,0.551,0.5513,0.5505,0.5505,0.5474,0.5472,0.5508,0.5507,0.5507,0,0.5334,0.5334,0.5357,0.5361,0.537,0.5377,0.5383,0.5405,0.541,0.5428,0.5428,0.5438,0.5447,0.546,0.5477,0.5488,0.5495,0.5484,0.5497,0.5491,0.5495,0.5495,0.5495,0.5481,0.548,0.548,0.5479,0,0.5303,0.5312,0.5321,0.5332,0.534,0.535,0.5361,0.5364,0.5388,0.5393,0.5403,0.541,0.5424,0.5434,0.5447,0.5458,0.5472,0.5475,0.5474,0.5468,0.5462,0.5466,0.5503,0.5476,0.5476,0.5476,0.5476,0.5477,0.5277,0.5278,0.5294,0.5303,0.5314,0.5325,0.5328,0.5343,0.5351,0.5364,0.5376,0.5384,0.54,0.5419,0.5428,0.5435,0.5443,0.5441,0.5441,0.544,0.5438,0.5461,0.5438,0.5438,0.5438,0.5438,0.5438,0,0.5246,0.5258,0.5266,0.5282,0.5289,0.5303,0.5316,0.5321,0.5328,0.5341,0.535,0.5361,0.5371,0.5389,0.5401,0.5403,0.541,0.5405,0.5405,0.5407,0.543,0.543,0.5399,0.5399,0.5399,0.5399,0.5399,0.5399,0.5231,0.5235,0.5246,0.5255,0.5267,0.5275,0.5282,0.5292,0.5302,0.5314,0.5322,0.5334,0.5349,0.5362,0.5372,0.5377,0.5381,0.5374,0.5381,0.5402,0.5406,0.5409,0.5409,0.5374,0.5374,0.5358,0.5357,0.5357]}]]